Regional Weather Roundup
Issued by NWS Portland, ME

Home | Current Version | Previous Version | Text Only | Print | Product List | Glossary On
Versions: 1 2 3 4 5 6 7 8 9 10 11 12 13 14 15 16 17 18 19 20 21 22 23 24 25 26 27 28 29 30 31 32 33 34 35 36 37 38 39 40 41 42 43 44 45 46 47 48 49 50
000
ASUS41 KGYX 270510
RWRGYX
WEATHER ROUNDUP FOR MAINE AND NEW HAMPSHIRE
NATIONAL WEATHER SERVICE GRAY ME
100 AM EDT TUE SEP 27 2016

MEZ002-005-006-010-012-015-018-020-021-024-026-027-029-270600-
MAINE

CITY           SKY/WX    TMP DP  RH WIND       PRES   REMARKS
PORTLAND       MOCLDY    56  47  71 SW7       29.99F
SANFORD        CLOUDY    52  47  83 SW5       29.99F
BAR HARBOR     CLOUDY   N/A N/A N/A SW8       30.00F
WISCASSET      CLOUDY    55  50  83 SW3       30.00F
ROCKLAND       PTCLDY    57  52  83 SW6       30.00F
FRYEBURG       CLOUDY    53  44  71 S5        29.97F
LEWISTONAUBURN CLOUDY    51  47  86 S6        29.97F
AUGUSTA        CLOUDY    50  46  86 SE6       29.98F
WATERVILLE     CLOUDY    49  45  86 SW3       29.95F
BANGOR         CLOUDY    49  43  80 S6        29.98F
GREENVILLE       N/A     47  40  76 CALM      29.93F
MILLINOCKET    CLOUDY    44  40  85 SE3       29.95F
HOULTON        PTCLDY    43  40  89 SW6       29.93F
PRESQUE ISLE   CLOUDY    36  35  96 CALM      29.93F
FRENCHVILLE    CLOUDY    43  38  82 SW6       29.90F
CARIBOU        CLOUDY    43  38  82 SW6       29.91F
$$

NHZ002-005-008-009-011-012-014-270600-
NEW HAMPSHIRE

CITY           SKY/WX    TMP DP  RH WIND       PRES   REMARKS
PORTSMOUTH     CLOUDY    58  47  68 S6        29.97F
ROCHESTER      CLOUDY    52  45  77 CALM      29.98F
NASHUA         CLOUDY    59  50  72 SE5       29.97F
MANCHESTER     CLOUDY    60  48  64 S8        29.96F
CONCORD        CLOUDY    56  47  71 S6        29.97F
LACONIA        CLOUDY    55  47  74 W3        29.96F
PLYMOUTH       CLOUDY    49  46  90 CALM      29.96F
BERLIN         CLOUDY    47  43  86 CALM      29.93F
WHITEFIELD     CLOUDY    49  45  86 CALM      29.93F
JAFFREY        CLOUDY    58  49  72 VRB5      29.98F
KEENE          CLOUDY    53  49  86 CALM      29.96F
LEBANON        CLOUDY    54  49  83 CALM      29.93F
MT WASHINGTON  DRZL/FOG  39  39 100 W44         N/A  VSB 0
$$

VTZ005-007-008-270600-
VERMONT

CITY           SKY/WX    TMP DP  RH WIND       PRES   REMARKS
ST JOHNSBURY     N/A     51  46  83 MISG      29.91F
MONTPELIER     LGT RAIN  54  46  74 VRB3      29.94F
BURLINGTON     LGT RAIN  59  51  75 S8        29.86F
$$

MAZ007-012-024-CTZ003-RIZ002-NYZ038-NYZ072-270600-
SOUTHERN NEW ENGLAND AND NY

CITY           SKY/WX    TMP DP  RH WIND       PRES   REMARKS
BOSTON         CLOUDY    59  51  75 S8        30.00F
WORCESTER      CLOUDY    57  49  74 S9        29.98F
NANTUCKET      CLEAR     63  52  67 S14       30.05F
PROVIDENCE     CLOUDY    60  50  69 S3        30.00F
HARTFORD       CLOUDY    62  52  69 S6        29.96F
ALBANY         LGT RAIN  61  53  75 S7        29.92F
NEW YORK CITY  CLOUDY    71  61  70 S14       29.95F
$$

ANZ081-ANZ082-ANZ150-NHZ014-MEZ023>029-270600-
COASTAL MARINE OBSERVATIONS

STATION/POSITION TIME  TEMP    WIND        PRES    WAVE
                       AIR SEA DIR/SP/G            HT/PER
                 (UTC) (F)     (DEG/KT/KT) (MB)    (FT/S)
MOUNT DESERT ROC 0500   56     200/ 11/ 13 1016.3F
MATINICUS ROCK   0400   57     210/ 17/ 19 1016.3F
ISLE OF SHOALS   0400   61     200/ 20/ 22 1016.0F
JEFFREYS LEDGE   0438      61                N/A     4/ 4
CASHES LEDGE BUO 0450   60 60  210/ 16/ 19 1016.5F   3/ 4
GEORGES BANK BUO 0350   60 63              1020.0    3/ 5
$$

.............KEY..............
   WCI - WIND CHILL
   TC  - TEMPERATURE IN CELSIUS
   VSB - VISIBILITY IN MILES
   HX  - HEAT INDEX
   FAIR- INDICATES FEW OR NO CLOUDS BELOW 12,000 FT, WITH NO
         SIGNIFICANT WEATHER AND/OR OBSTRUCTIONS TO VISIBILITY.






USA.gov is the U.S. government's official web portal to all federal, state and local government web resources and services.